When you browse on this site, cookies collect data to enhance your experience and personalize the content and advertising you see.
Visit our Privacy Policy to learn more. By continuing to use the site, you agree to this use of cookies and data.
  • en Belgique
  • Liste des pays
  • À 7 jours
  • Température de l'eau
  • Carte satellitaire
  • Carte météo
  • Widgets météo
  • user-avatar
    Se connecter

    Météo par heure à Namur

    Ce jour, 24 Janvier, Jeudi

    Heure Température Précipitation Vent Pression Humidité
    00:00 -5°C° 0 mm 3 m/s 744 mmHg 87%
    01:00 -5°C° 0 mm 3 m/s 744 mmHg 88%
    02:00 -4°C° 0 mm 2 m/s 744 mmHg 88%
    03:00 -4°C° 0 mm 2 m/s 745 mmHg 88%
    04:00 -5°C° 0 mm 2 m/s 745 mmHg 90%
    05:00 -3°C° 0 mm 1 m/s 745 mmHg 93%
    06:00 -4°C° 0 mm 1 m/s 745 mmHg 95%
    07:00 -3°C° 0 mm 1 m/s 746 mmHg 94%
    08:00 -2°C° 0 mm 1 m/s 746 mmHg 92%
    09:00 -2°C° 0 mm 1 m/s 747 mmHg 91%
    10:00 -1°C° 0 mm 1 m/s 747 mmHg 89%
    11:00 -2°C° 0 mm 2 m/s 747 mmHg 88%
    12:00 -1°C° 0 mm 2 m/s 747 mmHg 86%
    13:00 -1°C° 0 mm 2 m/s 747 mmHg 88%
    14:00 -1°C° 0 mm 2 m/s 747 mmHg 89%
    15:00 -1°C° 0 mm 2 m/s 748 mmHg 91%
    16:00 -1°C° 0 mm 2 m/s 748 mmHg 92%
    17:00 -2°C° 0 mm 2 m/s 748 mmHg 94%
    18:00 -2°C° 0 mm 2 m/s 748 mmHg 96%
    19:00 -2°C° 0 mm 2 m/s 749 mmHg 96%
    20:00 -2°C° 0 mm 2 m/s 749 mmHg 95%
    21:00 -2°C° 0 mm 2 m/s 750 mmHg 94%
    22:00 -2°C° 0 mm 2 m/s 750 mmHg 94%
    23:00 -2°C° 0 mm 2 m/s 750 mmHg 94%

    Demain, 25 Janvier, Vendredi

    Heure Température Précipitation Vent Pression Humidité
    00:00 -2°C° 0 mm 2 m/s 750 mmHg 93%
    01:00 -3°C° 0 mm 2 m/s 750 mmHg 93%
    02:00 -3°C° 0 mm 2 m/s 750 mmHg 92%
    03:00 -1°C° 0 mm 1 m/s 750 mmHg 92%
    04:00 -1°C° 0 mm 1 m/s 751 mmHg 92%
    05:00 -1°C° 0 mm 1 m/s 751 mmHg 91%
    06:00 -2°C° 0 mm 1 m/s 751 mmHg 91%
    07:00 -3°C° 0 mm 2 m/s 752 mmHg 90%
    08:00 -3°C° 0 mm 2 m/s 752 mmHg 90%
    09:00 -3°C° 0 mm 2 m/s 752 mmHg 89%
    10:00 -2°C° 0 mm 2 m/s 752 mmHg 88%
    11:00 -1°C° 0 mm 3 m/s 753 mmHg 86%
    12:00 0°C° 0 mm 3 m/s 753 mmHg 85%
    13:00 0°C° 0 mm 3 m/s 753 mmHg 87%
    14:00 0°C° 0 mm 3 m/s 753 mmHg 88%
    15:00 0°C° 0 mm 3 m/s 752 mmHg 90%
    16:00 -1°C° 0 mm 4 m/s 753 mmHg 91%
    17:00 -2°C° 0 mm 4 m/s 753 mmHg 93%
    18:00 -2°C° 0 mm 4 m/s 753 mmHg 94%
    19:00 -2°C° 0.2 mm 5 m/s 753 mmHg 93%
    20:00 -1°C° 0.2 mm 5 m/s 753 mmHg 93%
    21:00 -1°C° 0.2 mm 5 m/s 753 mmHg 92%
    22:00 -1°C° 0.1 mm 5 m/s 753 mmHg 93%
    23:00 -1°C° 0.1 mm 5 m/s 753 mmHg 93%

    Après-demain, 26 Janvier, Samedi

    Heure Température Précipitation Vent Pression Humidité
    00:00 -1°C° 0.1 mm 5 m/s 753 mmHg 94%
    01:00 -1°C° 0 mm 5 m/s 752 mmHg 94%
    02:00 0°C° 0 mm 5 m/s 752 mmHg 95%
    03:00 0°C° 0 mm 5 m/s 752 mmHg 95%
    04:00 0°C° 0 mm 5 m/s 752 mmHg 96%
    05:00 +1°C° 0 mm 5 m/s 751 mmHg 96%
    06:00 +1°C° 0 mm 5 m/s 751 mmHg 96%
    07:00 +1°C° 0.1 mm 5 m/s 751 mmHg 96%
    08:00 +1°C° 0.1 mm 5 m/s 751 mmHg 96%
    09:00 +1°C° 0.1 mm 5 m/s 751 mmHg 96%
    10:00 +1°C° 0.1 mm 5 m/s 750 mmHg 96%
    11:00 +2°C° 0.1 mm 5 m/s 750 mmHg 96%
    12:00 +2°C° 0.1 mm 5 m/s 749 mmHg 95%
    13:00 +2°C° 0 mm 5 m/s 749 mmHg 95%
    14:00 +2°C° 0 mm 6 m/s 748 mmHg 95%
    15:00 +2°C° 0 mm 6 m/s 747 mmHg 95%
    16:00 +2°C° 0 mm 6 m/s 747 mmHg 95%
    17:00 +2°C° 0 mm 6 m/s 746 mmHg 94%
    18:00 +2°C° 0 mm 7 m/s 745 mmHg 93%
    19:00 +2°C° 0 mm 7 m/s 744 mmHg 92%
    20:00 +2°C° 0 mm 7 m/s 743 mmHg 92%
    21:00 +1°C° 0 mm 8 m/s 742 mmHg 91%
    22:00 +1°C° 0.3 mm 8 m/s 741 mmHg 91%
    23:00 +2°C° 0.3 mm 9 m/s 740 mmHg 90%

    27 Janvier, Dimanche

    Heure Température Précipitation Vent Pression Humidité
    00:00 +2°C° 0.3 mm 9 m/s 739 mmHg 90%
    01:00 +2°C° 0.6 mm 9 m/s 738 mmHg 90%
    02:00 +2°C° 0.6 mm 8 m/s 737 mmHg 90%
    03:00 +2°C° 0.6 mm 8 m/s 736 mmHg 90%
    04:00 +2°C° 0.1 mm 8 m/s 735 mmHg 89%
    05:00 +1°C° 0.1 mm 9 m/s 734 mmHg 87%
    06:00 +1°C° 0.1 mm 9 m/s 733 mmHg 86%
    07:00 +1°C° 0.3 mm 10 m/s 732 mmHg 86%
    08:00 +2°C° 0.3 mm 10 m/s 732 mmHg 86%
    09:00 +2°C° 0.3 mm 10 m/s 731 mmHg 86%
    10:00 +2°C° 0.3 mm 10 m/s 731 mmHg 86%
    11:00 +2°C° 0.3 mm 10 m/s 731 mmHg 86%
    12:00 +2°C° 0.3 mm 10 m/s 731 mmHg 86%
    13:00 +2°C° 0.9 mm 10 m/s 732 mmHg 86%
    14:00 +2°C° 0.9 mm 10 m/s 732 mmHg 85%
    15:00 +2°C° 0.9 mm 11 m/s 733 mmHg 84%
    16:00 +1°C° 0.3 mm 10 m/s 733 mmHg 82%
    17:00 0°C° 0.3 mm 10 m/s 734 mmHg 80%
    18:00 0°C° 0.3 mm 9 m/s 735 mmHg 77%
    19:00 0°C° 0.5 mm 10 m/s 735 mmHg 79%
    20:00 -1°C° 0.5 mm 11 m/s 736 mmHg 82%
    21:00 -2°C° 0.5 mm 12 m/s 736 mmHg 84%
    22:00 -1°C° 0.9 mm 12 m/s 737 mmHg 84%
    23:00 -1°C° 0.9 mm 11 m/s 737 mmHg 85%

    28 Janvier, Lundi

    Heure Température Précipitation Vent Pression Humidité
    00:00 -1°C° 0.9 mm 11 m/s 738 mmHg 86%
    01:00 0°C° 0.5 mm 10 m/s 739 mmHg 86%
    02:00 -1°C° 0.5 mm 9 m/s 739 mmHg 86%
    03:00 -1°C° 0.5 mm 8 m/s 740 mmHg 87%
    04:00 -1°C° 0.3 mm 8 m/s 740 mmHg 87%
    05:00 -1°C° 0.3 mm 7 m/s 741 mmHg 87%
    06:00 -1°C° 0.3 mm 7 m/s 742 mmHg 87%
    07:00 -2°C° 0.1 mm 7 m/s 742 mmHg 87%
    08:00 -2°C° 0.1 mm 6 m/s 743 mmHg 87%
    09:00 -2°C° 0.1 mm 6 m/s 743 mmHg 88%
    10:00 -2°C° 0.1 mm 6 m/s 744 mmHg 87%
    11:00 -1°C° 0.1 mm 6 m/s 744 mmHg 86%
    12:00 -1°C° 0.1 mm 6 m/s 744 mmHg 84%
    13:00 -1°C° 0 mm 6 m/s 744 mmHg 83%
    14:00 0°C° 0 mm 5 m/s 744 mmHg 82%
    15:00 -1°C° 0 mm 5 m/s 744 mmHg 81%
    16:00 -1°C° 0 mm 4 m/s 744 mmHg 83%
    17:00 -1°C° 0 mm 3 m/s 744 mmHg 84%
    18:00 -2°C° 0 mm 3 m/s 744 mmHg 85%
    19:00 -4°C° 0 mm 3 m/s 744 mmHg 86%
    20:00 -4°C° 0 mm 3 m/s 744 mmHg 86%
    21:00 -4°C° 0 mm 3 m/s 743 mmHg 87%
    22:00 -3°C° 0.2 mm 4 m/s 743 mmHg 89%
    23:00 -2°C° 0.2 mm 5 m/s 742 mmHg 90%

    29 Janvier, Mardi

    Heure Température Précipitation Vent Pression Humidité
    00:00 -1°C° 0.2 mm 5 m/s 742 mmHg 92%
    01:00 -1°C° 1.1 mm 5 m/s 741 mmHg 91%
    02:00 -2°C° 1.1 mm 6 m/s 741 mmHg 90%
    03:00 -1°C° 1.1 mm 6 m/s 741 mmHg 90%
    04:00 -2°C° 0 mm 6 m/s 741 mmHg 89%
    05:00 -2°C° 0 mm 6 m/s 741 mmHg 89%
    06:00 -2°C° 0 mm 5 m/s 741 mmHg 89%
    07:00 -2°C° 0.2 mm 6 m/s 742 mmHg 88%
    08:00 -2°C° 0.2 mm 6 m/s 742 mmHg 88%
    09:00 -2°C° 0.2 mm 7 m/s 743 mmHg 87%
    10:00 -2°C° 0.2 mm 7 m/s 743 mmHg 86%
    11:00 -1°C° 0.2 mm 7 m/s 743 mmHg 84%
    12:00 -1°C° 0.2 mm 7 m/s 743 mmHg 83%
    13:00 -1°C° 0.1 mm 7 m/s 743 mmHg 83%
    14:00 -1°C° 0.1 mm 6 m/s 743 mmHg 82%
    15:00 -2°C° 0.1 mm 6 m/s 743 mmHg 82%
    16:00 -2°C° 0 mm 6 m/s 743 mmHg 83%
    17:00 -2°C° 0 mm 6 m/s 743 mmHg 84%
    18:00 -2°C° 0 mm 5 m/s 743 mmHg 85%
    19:00 -2°C° 0.2 mm 5 m/s 743 mmHg 86%
    20:00 -3°C° 0.2 mm 6 m/s 743 mmHg 87%
    21:00 -3°C° 0.2 mm 6 m/s 743 mmHg 88%
    22:00 -2°C° 0.3 mm 5 m/s 743 mmHg 88%
    23:00 -2°C° 0.3 mm 5 m/s 744 mmHg 89%
    Voir plus